User: anonymous   Login
Location: Writing-on-Stone Provincial Park
(49.0825°N, 111.6163°W)
Time: 16:04:21
(UTC-06:00)
Language:

BREEZE-M DEB (TANK) - Orbit

View from above orbital plane
View from above orbital plane
View from above satellite
View from above satellite

Ground track
Ground track

The orbit data is extracted from the following two-line orbital elements,

1 29649U 06056B   14297.07372664  .00005163  00000-0  73722-3 0   412
2 29649 049.4656 217.6705 5419419 280.4915 275.7875 04.95131874139619
Epoch (UTC): 24 October 2014 01:46:09
Eccentricity: 0.5419419
inclination: 49.4656°
perigee height: 282 km
apogee height: 16043 km
right ascension of ascending node: 217.6705°
argument of perigee: 280.4915°
revolutions per day: 4.95131874
mean anomaly at epoch: 275.7875°
orbit number at epoch: 13961

The dashed part of the orbit path shows where the satellite is in the earth's shadow,  

DLR